• Join FlightAware (Why Join?)
  • Login
  • US Flag 
08:09PM EDT


 

Airport Tracker/Info


-or-


 

Live Flight TrackerFlight Track Log ✈ N686DW ✈ 13-Jun-2013 ✈ KVQQ - KVQQ

Flight Track Log - Related Links

Times and Time Zones

All times are in EDT time to prevent confusion due to time zone crossing. See the N686DW flight status page for this flight to view local times or setup timezone preferences in your user account.

Time Position Orientation Groundspeed Altitude Reporting Facility
EDT Latitude Longitude Course Direction KTS MPH feet Rate Location/Type
10:57AM 30.2189 -81.9069 218° Southwest 81 93 700  Level Jacksonville Center
10:58AM 30.2003 -81.9239 218° Southwest 89 102 1,200 540 Climbing Jacksonville Center
10:59AM 30.1772 -81.9267 186° South 83 96 1,800 480 Climbing Jacksonville Center
11:00AM 30.1628 -81.9483 232° Southwest 89 102 2,200 60 Climbing Jacksonville Center
11:01AM 30.1506 -81.9750 242° Southwest 89 102 2,000 -180 Descending Jacksonville Center
11:02AM 30.1464 -82.0039 261° West 96 110 1,900 -60 Descending Jacksonville Center
11:03AM 30.1736 -82.0131 344° North 97 112 1,900  Level Jacksonville Center
11:04AM 30.1989 -82.0272 334° Northwest 107 123 2,000  Climbing Jacksonville Center
11:05AM 30.2281 -82.0294 356° North 98 113 1,900 -300 Descending Jacksonville Center
11:06AM 30.2406 -82.0100 53° Northeast 117 135 1,500 -480 Descending Jacksonville Center
11:07AM 30.2319 -81.9767 107° East 106 122 1,000 -540 Descending Jacksonville Center
11:08AM 30.2233 -81.9453 108° East 105 121 500 -180 Descending Jacksonville Center
11:09AM 30.2147 -81.9142 108° East 94 108 700 180 Climbing Jacksonville Center
11:11AM 30.2228 -81.8806 74° East 103 119 900 420 Climbing Jacksonville Center
11:11AM 30.2250 -81.9044 276° West 73 84 1,600 480 Climbing Jacksonville Center
11:12AM 30.2022 -81.9144 201° Southwest 96 110 1,900 120 Climbing Jacksonville Center
11:14AM 30.1750 -81.9219 193° South 103 119 1,900  Level Jacksonville Center
11:15AM 30.1439 -81.9172 173° South 101 116 1,900  Level Jacksonville Center
11:16AM 30.1167 -81.9272 198° South 93 107 1,900  Level Jacksonville Center
11:17AM 30.0917 -81.9347 195° South 98 113 2,000  Climbing Jacksonville Center
11:18AM 30.0667 -81.9494 207° Southwest 96 110 1,900 -60 Descending Jacksonville Center
11:19AM 30.0519 -81.9303 132° Southeast 117 135 1,900  Level Jacksonville Center
11:20AM 30.0600 -81.8942 76° East 104 120 2,000  Climbing Jacksonville Center
11:21AM 30.0767 -81.8747 45° Northeast 104 120 2,000 -180 Level Jacksonville Center
11:22AM 30.1081 -81.8769 356° North 94 108 1,700 -300 Descending Jacksonville Center
11:23AM 30.1308 -81.8767 North 96 110 1,500 -360 Descending Jacksonville Center
11:24AM 30.1603 -81.8764 360° North 94 108 1,000 -480 Descending Jacksonville Center
11:25AM 30.1831 -81.8761 North 96 110 500 -180 Descending Jacksonville Center
11:26AM 30.2122 -81.8758 360° North 96 110 700 240 Climbing Jacksonville Center
11:27AM 30.2147 -81.9047 276° West 89 102 1,000 420 Climbing Jacksonville Center
11:28AM 30.2108 -81.9311 260° West 82 94 1,600 600 Climbing Jacksonville Center
11:29AM 30.2089 -81.9600 266° West 79 91 2,300 540 Climbing Jacksonville Center
11:30AM 30.2089 -81.9817 270° West 84 97 2,700 300 Climbing Jacksonville Center
11:31AM 30.2278 -81.9861 349° North 119 137 2,900 180 Climbing Jacksonville Center